This demonstration page uses our WeatherBlox Daily Observations layout. Learn more.

41.55636, -103.73856

Hourly Observations for March 19, 2015

Temp ( °F °C ) Dew Point ( °F °C ) Humidity (%) Winds ( mph kmh ) Pressure ( in mb ) Visibility ( mi km ) Precip ( " mm )
12:53 am 00:53 Partly Cloudy 43 6.1 26 -3.3 51 51 W 5 7 30.01 1016 10 16.0934 0 0
1:53 am 01:53 Clear 40 4.4 27 -2.8 60 60 NNW 7 11 30.01 1016 10 16.0934 0 0
2:53 am 02:53 Mostly Cloudy 40 4.4 27 -2.8 60 60 NNW 5 7 30.03 1017 10 16.0934 0 0
3:53 am 03:53 Mostly Clear 39 3.9 27 -2.8 62 62 NNW 3 6 30.03 1017 10 16.0934 0 0
4:53 am 04:53 Mostly Clear 38 3.3 27 -2.8 65 65 Calm 30.02 1017 10 16.0934 0 0
5:53 am 05:53 Cloudy 38 3.3 28 -2.2 68 68 W 5 7 30.04 1017 10 16.0934 0 0
6:53 am 06:53 Cloudy 39 3.9 29 -1.7 67 67 W 7 11 30.06 1018 10 16.0934 0 0
7:53 am 07:53 Cloudy 39 3.9 30 -1.1 70 70 WNW 6 9 30.1 1019 10 16.0934 0 0
8:53 am 08:53 Cloudy 46 8 30 -1 53 53 NW 10 17 30.12 1020 10 16.0934 0 0
9:53 am 09:53 Mostly Cloudy 50 10 27 -2.8 41 41 NNW 17 28 30.12 1020 10 16.0934 0 0
10:53 am 10:53 Mostly Sunny 53 11.7 27 -2.8 37 37 NNW 18 30 30.12 1020 10 16.0934 0 0
11:53 am 11:53 Mostly Cloudy 54 12.2 26 -3.3 34 34 NW 16 26 30.11 1020 10 16.0934 0 0
12:53 pm 12:53 Sunny 58 14.4 25 -3.9 28 28 WNW 16 26 30.09 1019 10 16.0934 0 0
1:53 pm 13:53 Partly Cloudy 60 15.6 25 -3.9 26 26 WNW 17 28 30.07 1018 10 16.0934 0 0
2:53 pm 14:53 Sunny 59 15 26 -3.3 28 28 W 15 24 30.05 1018 10 16.0934 0 0
3:53 pm 15:53 Sunny 60 15.6 26 -3.3 27 27 NW 16 26 30.04 1017 10 16.0934 0 0
4:53 pm 16:53 Mostly Sunny 60 15.6 25 -3.9 26 26 WNW 14 22 30.04 1017 10 16.0934 0 0
5:53 pm 17:53 Sunny 59 15 24 -4.4 26 26 NNW 10 17 30.04 1017 10 16.0934 0 0
6:53 pm 18:53 Sunny 54 12.2 23 -5 30 30 N 9 15 30.07 1018 10 16.0934 0 0
7:53 pm 19:53 Clear 42 5.6 22 -5.6 45 45 NE 7 11 30.11 1020 10 16.0934 0 0
8:53 pm 20:53 Clear 40 4.4 23 -5 51 51 NNE 8 13 30.11 1020 10 16.0934 0 0
9:53 pm 21:53 Clear 38 3.3 21 -6.1 51 51 Calm 30.12 1020 10 16.0934 0 0
10:53 pm 22:53 Clear 37 2.8 21 -6.1 52 52 S 5 7 30.12 1020 10 16.0934 0 0
11:53 pm 23:53 Clear 33 0.6 20 -6.7 58 58 Calm 30.13 1020 10 16.0934 0 0

Powered by AerisWeather